This is the latest recevied weather packets stored in our database for station/object N4CVG. If no packets are shown the sender has not sent any weather packets the latest 10 day(s).
| Time | Temp. | Humidity | Pressure | Rain* | Wind** | Luminosity | Snow |
|---|---|---|---|---|---|---|---|
| 1777873804 | 11.67° C | 64% | 1014.1 hPa | 0 mm | - | - | - |
| 1777861203 | 13.33° C | 56% | 1015.4 hPa | 0 mm | - | - | - |
| 1777860603 | 13.33° C | 56% | 1015.2 hPa | 0 mm | - | - | - |
| 1777859404 | 13.33° C | 54% | 1015 hPa | 0 mm | - | - | - |
| 1777850403 | 16.11° C | 43% | 1015 hPa | 0 mm | - | - | - |
| 1777849224 | 16.11° C | 39% | 1015.1 hPa | 0 mm | - | - | - |
| 1777845604 | 17.22° C | 39% | 1015.4 hPa | 0 mm | - | - | - |
| 1777843824 | 16.67° C | 38% | 1015.6 hPa | 0 mm | - | - | - |
| 1777840802 | 17.22° C | 37% | 1016.6 hPa | 0 mm | - | - | - |
| 1777838403 | 16.67° C | 38% | 1017.3 hPa | 0 mm | - | - | - |
| 1777834803 | 15.56° C | 38% | 1018.3 hPa | 0 mm | - | - | - |
| 1777834204 | 16.11° C | 37% | 1018.3 hPa | 0 mm | - | - | - |
| 1777833024 | 15.56° C | 39% | 1018.6 hPa | 0 mm | - | - | - |
| 1777827003 | 14.44° C | 38% | 1020.1 hPa | 0 mm | - | - | - |
| 1777823403 | 13.33° C | 42% | 1021 hPa | 0 mm | - | - | - |
| 1777820403 | 11.67° C | 50% | 1021.1 hPa | 0 mm | - | - | - |
| 1777819204 | 11.11° C | 57% | 1021.2 hPa | 0 mm | - | - | - |
| 1777818602 | 10.56° C | 58% | 1021.1 hPa | 0 mm | - | - | - |
| 1777810204 | 2.22° C | 87% | 1020.8 hPa | 0 mm | - | - | - |
| 1777798204 | 3.33° C | 77% | 1019.3 hPa | 0 mm | - | - | - |
| 1777795803 | 2.78° C | 77% | 1019.1 hPa | 0 mm | - | - | - |
| 1777795204 | 2.78° C | 76% | 1019.1 hPa | 0 mm | - | - | - |
| 1777794603 | 2.78° C | 78% | 1019 hPa | 0 mm | - | - | - |
| 1777794003 | 3.33° C | 77% | 1019.1 hPa | 0 mm | - | - | - |
| 1777793424 | 3.89° C | 79% | 1019.1 hPa | 0 mm | - | - | - |
* Rain latest hour (hover to see other rain measurements)
** Current wind speed in m/s (hover to see current wind gust speed)